SCP
0 0 -0 0 0 0 0 -0 -0 -0 -0 0 -0 0 -0 -0 -0 0 -0 -0 -0 -0 -0 -0 -0 -0 -0 -0 0 0 0 0 0 0 0 0 0 0 0 0 -0 0 0
0 0 -0 0 0 -0 0 0 0 -0 0 -0 -0 0 0 -0 -0 -0 -0 -0 -0 -0 -0 -0 -0 -0 -0 -0 0 0 0 0 0 0 0 0 0 0 0 0 -0 -0 -0
0 -0 0 0 0 -0 0 -0 0 0 0 0 0 -0 -0 -0 -0 -0 0 0 0 -0 -0 -0 -0 -0 -0 0 0 0 0 0 0 0 0 0 0 0 0 0 -0 -0 -0
-0 -0 -0 0 -0 -0 -0 -0 -0 0 0 0 0 -0 0 -0 -0 -0 0 0 0 0 0 -0 -0 -0 -0 -0 0 -0 0 0 0 0 0 0 -0 0 -0 0 0 -0 -0
-0 -0 -0 -0 0 0 0 -0 0 -0 -0 -0 0 0 0 0 0 0 0 0 0 0 0 0 -0 -0 -0 -0 -0 -0 -0 -0 -0 -0 -0 -0 -0 0 0 -0 -0 -0 -0
-0 -0 -0 0 0 -0 0 -0 0 -0 0 -0 -0 0 0 0 -0 -0 0 0 0 -0 -0 0 -0 -0 -0 -0 -0 -0 -0 -0 -0 -0 -0 -0 -0 0 -0 0 0 0 -0
0 0 0 -0 -0 -0 0 -0 -0 -0 0 0 -0 0 0 -0 0 0 0 0 -0 -0 -0 -0 -0 0 0 -0 -0 0 -0 0 0 0 -0 -0 -0 -0 -0 -0 0 0 0
-0 0 0 -0 -0 -0 -0 0 0 -0 0 0 -0 0 -0 -0 0 0 0 0 -0 -0 -0 -0 -0 -0 0 -0 -0 -0 -0 -0 -0 -0 -0 -0 -0 -0 -0 -0 0 0 0
0 0 -0 -0 -0 -0 -0 -0 0 0 0 0 -0 -0 0 0 0 0 0 0 -0 -0 -0 -0 -0 -0 -0 -0 -0 -0 -0 -0 -0 -0 -0 -0 -0 -0 -0 -0 0 0 0
0 0 0 0 -0 -0 -0 0 0 -0 0 0 0 -0 -0 0 0 0 0 0 0 -0 -0 -0 -0 -0 -0 -0 -0 -0 -0 -0 -0 -0 -0 -0 -0 -0 -0 -0 0 0 0
-0 0 0 0 0 0 0 -0 0 -0 0 -0 0 0 -0 0 0 0 -0 0 0 0 -0 -0 -0 -0 -0 -0 -0 -0 -0 -0 -0 -0 -0 -0 0 0 0 0 0 0 0
-0 0 0 0 0 0 0 0 0 0 0 0 0 -0 -0 0 0 0 0 0 0 0 0 0 0 0 0 0 -0 -0 -0 -0 -0 -0 -0 -0 -0 -0 0 0 0 0 0
0 0 0 0 0 0 -0 0 0 0 0 0 0 0 -0 -0 0 0 0 0 0 0 0 0 0 0 0 0 0 -0 -0 0 -0 -0 -0 0 0 0 0 0 0 0 0
0 0 0 0 0 0 0 0 0 0 -0 -0 -0 0 -0 -0 0 0 0 0 -0 0 0 0 0 0 0 0 0 0 0 0 0 -0 0 0 0 0 0 0 0 0 0
0 0 -0 -0 0 0 0 -0 0 -0 -0 0 0 0 0 0 0 0 0 0 0 0 -0 0 0 0 0 0 0 0 0 0 0 0 0 0 0 0 0 0 0 0 0
0 0 -0 -0 -0 0 0 0 -0 -0 0 0 0 0 0 -0 -0 -0 -0 -0 0 0 -0 0 0 0 0 0 0 0 -0 0 0 0 0 0 0 0 0 0 0 0 0
-0 0 -0 -0 -0 0 -0 -0 -0 -0 0 0 0 0 -0 -0 -0 -0 -0 -0 -0 0 0 0 0 0 0 0 0 -0 0 0 0 0 -0 0 0 0 0 0 0 0 0
0 0 0 0 0 0 -0 -0 -0 -0 -0 0 -0 0 0 -0 -0 -0 -0 -0 0 0 0 0 0 0 0 0 0 -0 0 0 0 0 0 0 0 0 0 0 0 0 0
-0 -0 -0 -0 -0 -0 -0 -0 -0 0 0 0 0 0 0 0 0 0 0 0 0 0 0 0 0 0 0 0 0 0 0 0 0 0 0 0 0 0 0 0 0 0 0
-0 0 -0 -0 0 0 -0 -0 -0 -0 -0 0 0 -0 0 -0 0 0 0 0 0 0 0 0 0 0 0 0 0 0 0 0 0 0 0 0 0 0 0 0 0 0 0
-0 0 0 0 0 0 0 -0 -0 -0 0 -0 -0 -0 -0 0 0 0 0 0 0 0 0 0 0 0 0 0 0 0 0 0 0 0 0 0 0 0 0 0 0 0 0
-0 0 0 0 0 0 -0 -0 -0 -0 -0 -0 -0 -0 0 0 0 0 0 0 0 0 0 0 0 0 0 0 0 0 0 0 0 0 0 0 0 0 0 0 0 0 0
-0 0 0 0 0 0 0 -0 -0 -0 -0 -0 -0 0 0 0 0 0 0 0 0 0 0 0 0 0 0 0 0 0 0 0 0 0 0 0 0 0 0 0 0 0 0
0 -0 -0 -0 -0 0 0 -0 -0 -0 -0 -0 -0 -0 -0 0 0 0 0 0 0 0 0 0 0 0 0 0 0 0 0 0 0 0 0 0 0 0 0 0 0 0 0
-0 -0 -0 -0 -0 -0 0 -0 -0 -0 -0 -0 -0 -0 0 0 0 0 0 0 0 0 0 0 -0 -0 -0 0 0 0 0 0 0 0 0 0 0 0 0 0 0 0 0
-0 -0 -0 -0 -0 -0 -0 -0 -0 0 -0 0 0 0 0 0 0 0 0 0 0 0 0 0 0 0 0 0 0 0 0 0 0 0 0 0 0 0 0 0 0 0 0
Wind_Speed_500mb
15 28 28 26 24 22 21 22 27 27 18 26 20 19 16 2 21 26 24 14 5 6 11 13 15 15 16 16 16 16 15 15 15 14 11 11 11 10 10 10 10 9 9
15 22 28 27 21 15 19 18 15 20 28 20 21 20 16 20 15 32 22 17 12 10 9 13 15 16 16 18 18 17 17 17 16 16 16 16 15 16 15 13 12 12 12
17 25 23 27 24 19 19 15 19 22 25 27 18 19 17 18 19 15 21 15 11 11 12 13 16 20 21 20 19 18 18 16 19 20 21 17 17 18 18 17 17 17 16
17 23 22 22 22 25 27 23 23 22 26 32 32 24 27 25 22 22 20 20 14 15 17 17 15 24 24 21 21 21 22 18 22 21 22 22 22 21 22 21 20 20 21
15 21 21 19 11 21 24 23 22 23 31 29 34 30 37 36 30 22 24 32 28 21 23 23 21 27 28 25 26 25 24 25 25 25 24 22 23 20 22 21 21 22 23
12 25 23 20 20 26 28 23 26 28 32 28 30 34 32 32 36 36 34 41 26 29 37 35 31 29 25 25 30 31 32 30 31 31 30 29 28 25 24 22 22 24 24
13 26 18 17 19 19 18 24 19 21 16 20 24 33 39 44 47 44 43 47 44 40 43 41 36 38 38 34 35 35 36 35 37 35 36 36 36 34 31 31 32 29 30
13 22 21 17 19 19 14 19 17 15 13 11 10 8 9 14 23 25 28 37 43 40 41 42 41 39 37 38 38 35 31 35 37 45 43 38 38 39 38 38 38 37 33
13 20 19 19 23 18 11 14 15 17 9 10 9 8 5 1 0 7 12 17 26 36 33 33 32 31 27 33 35 32 30 21 31 35 40 39 39 40 39 39 41 39 38
15 24 20 20 17 17 14 24 30 21 12 8 3 6 3 2 5 2 0 9 16 15 13 8 9 12 7 15 14 20 26 32 32 28 29 35 36 35 35 32 31 32 34
23 22 20 16 19 18 15 21 26 19 15 12 10 6 6 8 7 7 2 2 8 9 11 14 9 9 12 15 15 20 18 22 25 28 27 29 31 30 29 30 28 29 29
16 16 16 14 12 17 17 20 24 18 17 20 18 16 12 4 6 14 21 11 11 10 14 17 20 19 21 27 20 18 11 10 16 22 25 25 27 29 31 30 31 30 30
8 8 12 13 15 14 14 18 16 13 25 22 22 22 25 13 10 10 9 5 7 9 12 18 19 14 30 33 27 18 18 18 20 18 19 22 23 25 26 27 27 27 27
11 24 23 17 16 15 11 9 14 19 16 16 23 29 30 27 19 10 10 8 15 10 12 13 13 36 32 24 23 33 22 23 24 21 16 15 19 21 23 24 25 25 23
21 20 39 19 16 16 19 13 15 15 18 11 8 9 9 18 22 17 19 17 18 18 24 14 17 18 19 27 32 40 27 22 23 24 18 18 20 22 23 24 25 25 24
12 21 45 32 22 18 18 14 16 15 13 16 16 17 17 16 20 18 22 19 22 16 15 14 10 13 19 31 33 22 28 28 19 25 25 24 25 27 27 27 27 28 27
11 34 31 29 23 19 16 16 17 10 15 18 19 21 21 23 25 25 24 27 26 20 23 23 24 29 36 34 22 17 21 32 24 27 27 31 33 33 33 33 32 32 30
16 19 23 23 25 19 17 16 18 20 19 18 15 16 18 20 22 20 21 20 24 23 25 31 23 17 15 15 11 12 16 23 29 28 30 33 35 32 35 38 39 37 36
17 16 19 19 16 18 15 14 18 16 15 15 9 12 14 14 12 13 16 20 15 13 16 20 20 14 17 20 21 20 17 22 27 33 38 41 41 38 40 46 46 43 41
22 18 19 17 21 17 17 19 17 13 6 3 10 12 11 12 14 13 16 18 14 12 14 17 19 17 15 17 21 24 27 26 23 33 35 37 36 39 44 49 52 54 48
29 20 24 23 19 21 16 15 10 8 3 7 17 19 23 22 20 22 20 15 15 17 19 16 12 16 18 21 20 19 25 30 34 35 40 41 43 41 43 43 46 49 46
41 30 29 27 24 22 15 15 14 11 7 16 20 21 22 24 21 14 11 18 17 18 17 17 18 20 19 21 25 26 29 30 35 26 31 41 42 45 44 40 38 37 41
36 32 31 28 28 22 24 21 19 10 8 14 12 10 10 13 14 11 14 15 16 19 17 15 12 10 14 18 22 24 25 27 32 33 32 38 38 44 35 31 32 37 40
39 35 33 31 29 29 26 27 22 12 10 13 15 16 12 17 16 13 15 17 15 12 11 13 13 11 14 18 23 26 29 31 28 24 25 37 28 34 32 29 26 31 36
45 34 33 29 30 30 30 26 21 10 10 13 19 21 19 24 26 29 32 24 21 18 13 13 15 16 17 14 16 22 23 27 28 27 26 35 35 41 39 33 29 24 33
48 39 38 34 33 34 36 30 25 17 11 18 17 21 25 29 35 41 37 27 18 18 21 19 19 15 16 20 17 22 20 21 24 28 22 27 30 33 40 36 23 35 32
Wind_Direction_500mb
173 183 171 161 155 164 175 170 177 181 180 165 188 200 197 281 204 219 212 176 196 246 236 207 194 189 189 191 188 186 185 185 183 189 186 191 190 198 200 200 203 207 204
166 168 174 172 161 160 154 170 181 204 198 205 204 198 210 233 232 201 204 198 193 200 227 241 230 213 209 211 205 206 206 202 203 207 210 211 207 205 217 220 228 231 228
176 167 165 169 164 169 177 176 183 192 203 208 214 206 215 204 220 194 196 215 232 225 231 245 242 237 227 231 226 220 218 211 217 215 217 218 227 226 229 233 235 238 243
175 170 164 170 179 183 196 205 196 193 206 204 223 212 221 230 226 223 203 198 212 232 240 235 242 243 241 237 235 229 231 221 229 230 232 226 231 238 237 240 243 249 250
180 179 180 163 188 203 207 211 206 212 214 211 209 221 222 236 230 213 233 240 238 230 226 237 249 252 245 240 239 242 241 237 245 235 236 232 234 237 250 253 257 256 257
184 177 186 164 170 185 193 200 222 207 219 227 228 237 234 238 241 244 251 235 226 238 228 242 242 242 248 253 245 245 244 244 246 250 249 243 240 241 245 248 258 262 261
189 196 198 172 182 205 208 189 192 199 225 230 229 233 239 248 251 253 249 238 247 241 247 247 241 245 257 260 247 253 257 253 253 255 257 257 253 257 255 256 268 271 268
208 213 203 188 193 198 195 180 180 199 212 195 184 158 202 232 240 237 245 243 247 243 247 249 253 254 261 257 247 258 263 263 252 258 259 261 264 268 268 265 267 262 264
213 210 205 198 198 204 226 200 192 202 198 159 152 98 149 174 190 253 222 214 228 236 242 249 254 263 263 258 256 255 254 282 260 266 257 260 266 269 269 270 266 261 259
225 198 212 201 216 212 236 198 189 180 201 161 151 234 96 8 94 62 104 190 192 207 218 205 247 215 279 252 271 296 268 267 270 267 262 263 269 271 271 272 268 256 260
202 206 215 218 210 206 210 187 193 188 193 215 228 237 207 252 257 282 306 199 238 237 218 218 233 235 250 272 300 337 306 278 267 261 264 264 265 266 267 271 269 262 260
217 215 211 218 222 195 191 199 196 200 204 205 199 198 240 285 307 301 270 268 265 278 269 256 257 262 279 275 291 322 332 326 276 263 261 261 262 265 268 264 264 263 266
248 261 212 205 235 214 197 193 205 207 224 230 221 208 222 251 274 3 322 342 343 306 287 302 250 275 271 250 246 262 289 311 314 279 265 260 261 268 270 267 266 267 266
148 200 237 191 202 224 203 188 208 212 210 223 236 232 239 250 248 261 330 322 318 320 320 306 250 254 283 263 236 280 266 272 298 290 268 264 268 275 273 268 266 264 259
243 272 192 188 203 195 220 201 199 207 236 259 280 234 232 237 241 262 267 279 295 303 313 315 274 255 267 265 264 266 273 267 273 282 276 273 275 279 276 268 264 258 253
306 141 175 165 176 192 212 207 216 215 235 251 243 263 268 246 250 260 268 267 272 294 290 334 312 291 299 312 313 290 230 240 255 272 273 277 277 279 279 272 263 257 251
129 145 154 166 189 199 219 216 223 242 251 254 256 263 277 281 278 273 271 275 267 278 278 282 294 303 305 322 333 228 274 237 249 266 278 274 278 273 274 273 266 257 254
171 172 169 181 197 185 200 200 220 237 260 273 281 281 285 284 285 286 276 278 274 276 278 277 276 304 323 347 337 287 296 281 266 273 275 271 267 273 272 269 264 257 252
193 187 188 192 199 209 209 233 238 260 263 289 322 350 331 303 286 295 302 302 297 286 263 276 286 280 290 308 305 296 293 283 275 276 280 278 277 275 276 274 266 252 253
220 211 202 201 208 211 226 233 246 245 232 312 326 311 300 296 288 285 301 306 304 302 303 290 283 260 280 286 285 275 269 278 263 265 276 275 273 284 286 275 267 262 250
227 233 223 219 214 221 214 219 232 191 212 294 301 296 292 285 285 294 295 286 297 302 301 296 282 250 265 267 286 286 273 269 271 275 284 281 284 288 292 278 264 261 253
228 222 222 218 222 210 202 209 194 210 296 339 317 305 292 274 283 294 275 302 294 300 296 294 278 268 263 264 275 279 279 277 279 282 281 280 283 289 297 287 269 255 249
216 221 218 210 211 209 210 212 216 239 299 358 353 349 4 353 347 314 298 296 299 302 295 300 318 307 278 282 291 292 293 295 294 290 285 284 284 296 306 287 275 251 253
213 212 213 212 211 210 204 201 211 242 297 331 332 345 346 350 342 322 322 310 301 304 295 303 305 305 308 323 310 302 301 299 293 287 286 284 283 296 301 312 283 263 259
212 212 210 209 193 206 198 198 207 248 261 301 324 310 315 324 328 327 323 312 287 280 251 260 284 306 308 294 303 311 306 310 308 307 304 292 293 298 300 300 307 294 287
217 210 210 199 200 210 198 196 203 230 215 246 288 292 299 307 321 323 324 320 308 277 261 260 278 290 292 311 279 290 307 307 306 312 321 307 307 307 306 312 303 317 310
Wind_Speed_850mb
15 28 28 26 24 22 21 22 27 27 18 26 20 19 16 2 21 26 24 14 5 6 11 13 15 15 16 16 16 16 15 15 15 14 11 11 11 10 10 10 10 9 9
15 22 28 27 21 15 19 18 15 20 28 20 21 20 16 20 15 32 22 17 12 10 9 13 15 16 16 18 18 17 17 17 16 16 16 16 15 16 15 13 12 12 12
17 25 23 27 24 19 19 15 19 22 25 27 18 19 17 18 19 15 21 15 11 11 12 13 16 20 21 20 19 18 18 16 19 20 21 17 17 18 18 17 17 17 16
17 23 22 22 22 25 27 23 23 22 26 32 32 24 27 25 22 22 20 20 14 15 17 17 15 24 24 21 21 21 22 18 22 21 22 22 22 21 22 21 20 20 21
15 21 21 19 11 21 24 23 22 23 31 29 34 30 37 36 30 22 24 32 28 21 23 23 21 27 28 25 26 25 24 25 25 25 24 22 23 20 22 21 21 22 23
12 25 23 20 20 26 28 23 26 28 32 28 30 34 32 32 36 36 34 41 26 29 37 35 31 29 25 25 30 31 32 30 31 31 30 29 28 25 24 22 22 24 24
13 26 18 17 19 19 18 24 19 21 16 20 24 33 39 44 47 44 43 47 44 40 43 41 36 38 38 34 35 35 36 35 37 35 36 36 36 34 31 31 32 29 30
13 22 21 17 19 19 14 19 17 15 13 11 10 8 9 14 23 25 28 37 43 40 41 42 41 39 37 38 38 35 31 35 37 45 43 38 38 39 38 38 38 37 33
13 20 19 19 23 18 11 14 15 17 9 10 9 8 5 1 0 7 12 17 26 36 33 33 32 31 27 33 35 32 30 21 31 35 40 39 39 40 39 39 41 39 38
15 24 20 20 17 17 14 24 30 21 12 8 3 6 3 2 5 2 0 9 16 15 13 8 9 12 7 15 14 20 26 32 32 28 29 35 36 35 35 32 31 32 34
23 22 20 16 19 18 15 21 26 19 15 12 10 6 6 8 7 7 2 2 8 9 11 14 9 9 12 15 15 20 18 22 25 28 27 29 31 30 29 30 28 29 29
16 16 16 14 12 17 17 20 24 18 17 20 18 16 12 4 6 14 21 11 11 10 14 17 20 19 21 27 20 18 11 10 16 22 25 25 27 29 31 30 31 30 30
8 8 12 13 15 14 14 18 16 13 25 22 22 22 25 13 10 10 9 5 7 9 12 18 19 14 30 33 27 18 18 18 20 18 19 22 23 25 26 27 27 27 27
11 24 23 17 16 15 11 9 14 19 16 16 23 29 30 27 19 10 10 8 15 10 12 13 13 36 32 24 23 33 22 23 24 21 16 15 19 21 23 24 25 25 23
21 20 39 19 16 16 19 13 15 15 18 11 8 9 9 18 22 17 19 17 18 18 24 14 17 18 19 27 32 40 27 22 23 24 18 18 20 22 23 24 25 25 24
12 21 45 32 22 18 18 14 16 15 13 16 16 17 17 16 20 18 22 19 22 16 15 14 10 13 19 31 33 22 28 28 19 25 25 24 25 27 27 27 27 28 27
11 34 31 29 23 19 16 16 17 10 15 18 19 21 21 23 25 25 24 27 26 20 23 23 24 29 36 34 22 17 21 32 24 27 27 31 33 33 33 33 32 32 30
16 19 23 23 25 19 17 16 18 20 19 18 15 16 18 20 22 20 21 20 24 23 25 31 23 17 15 15 11 12 16 23 29 28 30 33 35 32 35 38 39 37 36
17 16 19 19 16 18 15 14 18 16 15 15 9 12 14 14 12 13 16 20 15 13 16 20 20 14 17 20 21 20 17 22 27 33 38 41 41 38 40 46 46 43 41
22 18 19 17 21 17 17 19 17 13 6 3 10 12 11 12 14 13 16 18 14 12 14 17 19 17 15 17 21 24 27 26 23 33 35 37 36 39 44 49 52 54 48
29 20 24 23 19 21 16 15 10 8 3 7 17 19 23 22 20 22 20 15 15 17 19 16 12 16 18 21 20 19 25 30 34 35 40 41 43 41 43 43 46 49 46
41 30 29 27 24 22 15 15 14 11 7 16 20 21 22 24 21 14 11 18 17 18 17 17 18 20 19 21 25 26 29 30 35 26 31 41 42 45 44 40 38 37 41
36 32 31 28 28 22 24 21 19 10 8 14 12 10 10 13 14 11 14 15 16 19 17 15 12 10 14 18 22 24 25 27 32 33 32 38 38 44 35 31 32 37 40
39 35 33 31 29 29 26 27 22 12 10 13 15 16 12 17 16 13 15 17 15 12 11 13 13 11 14 18 23 26 29 31 28 24 25 37 28 34 32 29 26 31 36
45 34 33 29 30 30 30 26 21 10 10 13 19 21 19 24 26 29 32 24 21 18 13 13 15 16 17 14 16 22 23 27 28 27 26 35 35 41 39 33 29 24 33
48 39 38 34 33 34 36 30 25 17 11 18 17 21 25 29 35 41 37 27 18 18 21 19 19 15 16 20 17 22 20 21 24 28 22 27 30 33 40 36 23 35 32
Wind_Direction_850mb
173 183 171 161 155 164 175 170 177 181 180 165 188 200 197 281 204 219 212 176 196 246 236 207 194 189 189 191 188 186 185 185 183 189 186 191 190 198 200 200 203 207 204
166 168 174 172 161 160 154 170 181 204 198 205 204 198 210 233 232 201 204 198 193 200 227 241 230 213 209 211 205 206 206 202 203 207 210 211 207 205 217 220 228 231 228
176 167 165 169 164 169 177 176 183 192 203 208 214 206 215 204 220 194 196 215 232 225 231 245 242 237 227 231 226 220 218 211 217 215 217 218 227 226 229 233 235 238 243
175 170 164 170 179 183 196 205 196 193 206 204 223 212 221 230 226 223 203 198 212 232 240 235 242 243 241 237 235 229 231 221 229 230 232 226 231 238 237 240 243 249 250
180 179 180 163 188 203 207 211 206 212 214 211 209 221 222 236 230 213 233 240 238 230 226 237 249 252 245 240 239 242 241 237 245 235 236 232 234 237 250 253 257 256 257
184 177 186 164 170 185 193 200 222 207 219 227 228 237 234 238 241 244 251 235 226 238 228 242 242 242 248 253 245 245 244 244 246 250 249 243 240 241 245 248 258 262 261
189 196 198 172 182 205 208 189 192 199 225 230 229 233 239 248 251 253 249 238 247 241 247 247 241 245 257 260 247 253 257 253 253 255 257 257 253 257 255 256 268 271 268
208 213 203 188 193 198 195 180 180 199 212 195 184 158 202 232 240 237 245 243 247 243 247 249 253 254 261 257 247 258 263 263 252 258 259 261 264 268 268 265 267 262 264
213 210 205 198 198 204 226 200 192 202 198 159 152 98 149 174 190 253 222 214 228 236 242 249 254 263 263 258 256 255 254 282 260 266 257 260 266 269 269 270 266 261 259
225 198 212 201 216 212 236 198 189 180 201 161 151 234 96 8 94 62 104 190 192 207 218 205 247 215 279 252 271 296 268 267 270 267 262 263 269 271 271 272 268 256 260
202 206 215 218 210 206 210 187 193 188 193 215 228 237 207 252 257 282 306 199 238 237 218 218 233 235 250 272 300 337 306 278 267 261 264 264 265 266 267 271 269 262 260
217 215 211 218 222 195 191 199 196 200 204 205 199 198 240 285 307 301 270 268 265 278 269 256 257 262 279 275 291 322 332 326 276 263 261 261 262 265 268 264 264 263 266
248 261 212 205 235 214 197 193 205 207 224 230 221 208 222 251 274 3 322 342 343 306 287 302 250 275 271 250 246 262 289 311 314 279 265 260 261 268 270 267 266 267 266
148 200 237 191 202 224 203 188 208 212 210 223 236 232 239 250 248 261 330 322 318 320 320 306 250 254 283 263 236 280 266 272 298 290 268 264 268 275 273 268 266 264 259
243 272 192 188 203 195 220 201 199 207 236 259 280 234 232 237 241 262 267 279 295 303 313 315 274 255 267 265 264 266 273 267 273 282 276 273 275 279 276 268 264 258 253
306 141 175 165 176 192 212 207 216 215 235 251 243 263 268 246 250 260 268 267 272 294 290 334 312 291 299 312 313 290 230 240 255 272 273 277 277 279 279 272 263 257 251
129 145 154 166 189 199 219 216 223 242 251 254 256 263 277 281 278 273 271 275 267 278 278 282 294 303 305 322 333 228 274 237 249 266 278 274 278 273 274 273 266 257 254
171 172 169 181 197 185 200 200 220 237 260 273 281 281 285 284 285 286 276 278 274 276 278 277 276 304 323 347 337 287 296 281 266 273 275 271 267 273 272 269 264 257 252
193 187 188 192 199 209 209 233 238 260 263 289 322 350 331 303 286 295 302 302 297 286 263 276 286 280 290 308 305 296 293 283 275 276 280 278 277 275 276 274 266 252 253
220 211 202 201 208 211 226 233 246 245 232 312 326 311 300 296 288 285 301 306 304 302 303 290 283 260 280 286 285 275 269 278 263 265 276 275 273 284 286 275 267 262 250
227 233 223 219 214 221 214 219 232 191 212 294 301 296 292 285 285 294 295 286 297 302 301 296 282 250 265 267 286 286 273 269 271 275 284 281 284 288 292 278 264 261 253
228 222 222 218 222 210 202 209 194 210 296 339 317 305 292 274 283 294 275 302 294 300 296 294 278 268 263 264 275 279 279 277 279 282 281 280 283 289 297 287 269 255 249
216 221 218 210 211 209 210 212 216 239 299 358 353 349 4 353 347 314 298 296 299 302 295 300 318 307 278 282 291 292 293 295 294 290 285 284 284 296 306 287 275 251 253
213 212 213 212 211 210 204 201 211 242 297 331 332 345 346 350 342 322 322 310 301 304 295 303 305 305 308 323 310 302 301 299 293 287 286 284 283 296 301 312 283 263 259
212 212 210 209 193 206 198 198 207 248 261 301 324 310 315 324 328 327 323 312 287 280 251 260 284 306 308 294 303 311 306 310 308 307 304 292 293 298 300 300 307 294 287
217 210 210 199 200 210 198 196 203 230 215 246 288 292 299 307 321 323 324 320 308 277 261 260 278 290 292 311 279 290 307 307 306 312 321 307 307 307 306 312 303 317 310